Location: Lake Sonoma
(38.7200°N, 123.0564°W)
Time: 21:28:55
(UTC-07:00)

ISS - Visible Passes

Search period start: 01 August 2014 00:00
Search period end: 11 August 2014 00:00
Orbit: 411 x 419 km, 51.6° (Epoch: 01 August)

Date Brightness Start Highest point End Pass type
(mag) Time Alt. Az. Time Alt. Az. Time Alt. Az.
01 Aug 0.2 03:04:05 10° N 03:04:54 11° N 03:05:44 10° NNE visible
01 Aug -1.2 04:39:27 10° NNW 04:42:29 30° NNE 04:45:30 10° E visible
01 Aug -1.7 21:21:40 10° S 21:23:26 17° SE 21:23:26 17° SE visible
02 Aug -0.6 03:50:51 10° NNW 03:53:29 21° NNE 03:56:06 10° ENE visible
02 Aug -3.2 05:27:06 10° WNW 05:30:25 56° SW 05:33:42 10° SE visible
02 Aug -3.3 22:08:11 10° SW 22:11:30 83° NW 22:14:16 14° NE visible
02 Aug -0.1 23:46:30 10° WNW 23:47:23 13° NW 23:47:23 13° NW visible
03 Aug -0.1 03:02:22 10° NNW 03:04:25 16° NNE 03:06:31 10° ENE visible
03 Aug -3.2 04:38:13 10° NW 04:41:35 77° NE 04:44:56 10° SE visible
03 Aug -3.2 21:19:28 10° SW 21:22:41 52° SE 21:25:57 10° ENE visible
03 Aug -0.7 22:56:57 10° WNW 22:59:35 21° NNW 23:02:15 10° NNE visible
04 Aug -2.1 03:52:25 42° NNE 03:52:41 43° NE 03:55:55 10° ESE visible
04 Aug -1.8 05:26:44 10° W 05:29:10 19° SW 05:31:36 10° S visible
04 Aug -1.3 22:07:34 10° W 22:10:34 31° NNW 22:13:37 10° NE visible
04 Aug 0.2 23:47:14 10° NNW 23:48:07 11° N 23:49:00 10° N visible
05 Aug -0.7 04:43:28 10° SSE 04:43:28 10° SSE 04:43:30 10° SSE visible
05 Aug -2.4 21:18:22 10° WSW 21:21:37 51° NW 21:24:53 10° NE visible
05 Aug 0.0 22:57:17 10° NW 22:58:57 13° NNW 23:00:37 10° NNE visible
06 Aug -0.2 22:07:33 10° WNW 22:09:49 17° NNW 22:12:05 10° NNE visible
07 Aug -0.7 21:18:00 10° W 21:20:43 23° NNW 21:23:28 10° NNE visible
08 Aug 0.0 22:08:08 10° NNW 22:09:11 11° NNW 22:10:14 10° N visible
09 Aug -0.2 21:18:12 10° NW 21:19:59 14° NNW 21:21:47 10° NNE visible
10 Aug 0.3 23:44:42 10° NNW 23:44:50 10° NNW 23:44:50 10° NNW visible
